Weather WX

World > North America > United States > Pennsylvania

Brickerville, Pennsylvania Regional Weather

Lat: 40.23N, Lon: 76.29W
Wx Zone: PAZ066
Feedback

Brickerville, PA Regional Weather

Expires:201906160300;;137790
ASUS41 KPHI 160212
RWRPHI

REGIONAL WEATHER ROUNDUP
NATIONAL WEATHER SERVICE MOUNT HOLLY NJ
1000 PM EDT SAT JUN 15 2019

NOTE:  "FAIR" INDICATES FEW OR NO CLOUDS BELOW 12,000 FEET WITH NO
SIGNIFICANT WEATHER AND/OR OBSTRUCTIONS TO VISIBILITY.

 * = STATION DOES NOT REPORT PRECIPITATION (E.G. RAIN, SNOW, ETC.) 
        OR FOG.


PAZ043-044-047-054-055-060>062-066>071-160300-
EASTERN PENNSYLVANIA
  
CITY           SKY/WX    TMP DP  RH WIND       PRES   REMARKS
PHILADELPHIA   MOCLDY    71  55  56 S12       30.00S                  
NORTH PHILA    FAIR      77  54  44 SW12G18   30.01S                  
BLUE BELL*     FAIR      73  57  56 S12       30.00S                  
DOYLESTOWN     FAIR      74  54  49 S6        29.98F                  
QUAKERTOWN*    CLEAR     72  55  56 S8        29.99                   
PERKASIE*      FAIR      72  54  53 SW3       30.00F                  
POTTSTOWN      FAIR      72  54  53 S6        30.00F                  
LANCASTER      CLOUDY    74  57  55 S7        29.98S                  
COATESVILLE    FAIR      72  57  60 VRB6      30.02S                  
WEST CHESTER   FAIR      72  55  56 S3        30.01S                  
READING        FAIR      73  58  59 S8        29.96S                  
ALLENTOWN      FAIR      74  55  51 SW10      29.97S                  
QN CITY/ALNTWN FAIR     N/A N/A N/A SW7       29.99R                  
MOUNT POCONO   MOCLDY    65  53  65 SW9       30.00S                  
HAZLETON       CLOUDY    68  52  56 S6        30.02S                  
LEHIGHTON      FAIR      63  61  94 CALM      29.98S                  
WILKES BARRE   MOCLDY    71  54  54 SW6       29.94F                  

$$

SKY/WX - Weather  TMP - Temperature  DP - Dew Point  RH - Relative Humidity
WIND - Wind Direction/Speed PRES - Barometric Pressure VSB - Visibility
WCI - Wind Chill Index E13G22 Wind - East Wind 13 mph/Gusts of 22 mph